Location: Hains Lake
(37.8540°N, 99.8578°W)
Time: 21:45:59
(UTC+00:00)

Explorer 7 - Pass Details

Date: 21 April 2021
Orbit: 484 x 677 km, 50.3° (Epoch: 13 May)

Event Time Altitude Azimuth Distance (km) Brightness Sun altitude
Rises 04:38:04 0° 294° (WNW) 2,702 11.1 -32.8°
Reaches altitude 10° 04:41:00 10° 317° (NW) 1,852 10.3 -33.2°
Maximum altitude 04:43:39 16° 356° (N) 1,540 9.6 -33.4°
Enters shadow 04:44:06 16° 3° (N) 1,557 9.6 -33.5°
